Location: Kuffner-Sternwarte
(48.2130°N, 16.2960°E)
Time: 04:34:07
(UTC+02:00)

Envisat - Pass Details

Date: 23 September 2024
Orbit: 762 x 764 km, 98.3° (Epoch: 04 October)

Event Time Altitude Azimuth Distance (km) Brightness Sun altitude
Rises 02:44:44 0° 29° (NNE) 3,236 7.2 -35.7°
Reaches altitude 10° 02:48:01 10° 51° (NE) 2,304 6.2 -35.3°
Maximum altitude 02:51:02 16° 88° (E) 1,930 5.4 -35.0°
Enters shadow 02:51:54 15° 100° (E) 1,963 5.3 -34.9°
